Date String (YYYY-MM-DD hh:mm:ss) UTC,Instrument flags,absolute air pressure of the measurement (hPa),sample flow rate (lpm),inlet stack bypass flow (lpm),air temperature of the measurement (°C),ambient temperature measured by the external sensor (°C),aerosol sample conditioner tube jacket temperature (°C),OPC LED temperature (°C),internal box temperature (°C),relative humidity of the measurement (%),span deviation,mass concentration of particles derived from Lorenz-Mie calculation of OPC scattering (μg/m³),mass concentration of particles derived from Lorenz-Mie calculation of OPC scattering (μg/m³),mass concentration of particles derived from Lorenz-Mie calculation of OPC scattering (μg/m³)
DateTimeUTC,F1_M11,P_M11,Q1_M11,Q2_M11,T1_M11,T2_M11,T3_M11,T4_M11,T5_M11,U1_M11,ZSPAN_M11,X0_M11,X2_M11,X1_M11
2023-09-29 09:00:00,SystemResetWarning,0826.6,5.02,000.00,028.4,025.9,000.0,037.0,030.0,18.5,0000.0,0019.41,0006.50,0004.83
2023-09-29 09:01:00,SystemResetWarning,0826.6,5.01,000.00,028.4,026.1,000.0,037.0,030.0,18.5,0000.0,0020.27,0006.47,0004.82
2023-09-29 09:02:00,SystemResetWarning,0826.6,4.99,000.00,028.4,026.3,000.0,036.9,030.0,18.6,0000.0,0019.54,0006.45,0004.83
2023-09-29 09:03:00,SystemResetWarning,0826.6,4.99,000.00,028.4,026.5,000.0,036.9,030.0,18.6,0000.0,0019.50,0006.44,0004.83
2023-09-29 09:04:00,SystemResetWarning,0826.6,5.00,000.00,028.4,026.7,000.0,036.9,030.1,18.7,0000.0,0020.12,0006.45,0004.83
2023-09-29 09:05:00,SystemResetWarning,0826.6,5.00,000.00,028.4,026.8,000.0,036.9,030.1,18.6,0000.0,0021.08,0006.48,0004.83
2023-09-29 09:06:00,SystemResetWarning,0826.6,5.01,000.00,028.4,026.9,000.0,036.9,030.1,18.6,0000.0,0021.90,0006.54,0004.84
2023-09-29 09:07:00,SystemResetWarning,0826.6,5.00,000.00,028.5,027.0,000.0,036.9,030.2,18.6,0000.0,0022.57,0006.58,0004.85
2023-09-29 09:08:00,SystemResetWarning,0826.6,5.00,000.00,028.5,027.1,000.0,036.9,030.2,18.4,0000.0,0021.85,0006.57,0004.86
2023-09-29 09:09:00,SystemResetWarning,0826.6,5.00,000.00,028.5,027.2,000.0,036.9,030.2,18.4,0000.0,0021.68,0006.56,0004.86
2023-09-29 09:10:00,SystemResetWarning,0826.6,5.00,000.00,028.5,027.2,000.0,036.9,030.3,18.5,0000.0,0021.62,0006.58,0004.88
2023-09-29 09:11:00,SystemResetWarning,0826.6,5.00,000.00,028.5,027.3,000.0,037.0,030.3,18.4,0000.0,0021.94,0006.61,0004.89
2023-09-29 09:12:00,SystemResetWarning,0826.6,5.00,000.00,028.6,027.3,000.0,037.0,030.3,18.5,0000.0,0021.86,0006.64,0004.90
2023-09-29 09:13:00,SystemResetWarning,0826.6,5.00,000.00,028.6,027.3,000.0,037.0,030.3,18.5,0000.0,0022.05,0006.68,0004.90
2023-09-29 09:14:00,SystemResetWarning,0826.6,5.00,000.00,028.6,027.4,000.0,037.0,030.3,18.5,0000.0,0021.82,0006.70,0004.90
2023-09-29 09:15:00,SystemResetWarning,0826.6,5.00,000.00,028.6,027.4,000.0,037.0,030.4,18.3,0000.0,0021.27,0006.73,0004.90
2023-09-29 09:16:00,SystemResetWarning,0826.5,5.01,000.00,028.6,027.4,000.0,037.0,030.4,18.1,0000.0,0021.29,0006.76,0004.90
2023-09-29 09:17:00,SystemResetWarning,0826.6,5.00,000.00,028.7,027.5,000.0,037.0,030.4,18.2,0000.0,0021.90,0006.74,0004.90
2023-09-29 09:18:00,SystemResetWarning,0826.6,5.00,000.00,028.7,027.5,000.0,037.0,030.4,18.2,0000.0,0021.10,0006.75,0004.90
2023-09-29 09:19:00,SystemResetWarning,0826.6,4.99,000.00,028.7,027.5,000.0,037.1,030.4,18.2,0000.0,0021.88,0006.78,0004.91
2023-09-29 09:20:00,SystemResetWarning,0826.6,4.99,000.00,028.7,027.5,000.0,037.1,030.5,18.2,0000.0,0021.62,0006.84,0004.90
2023-09-29 09:21:00,SystemResetWarning,0826.5,5.00,000.00,028.7,027.5,000.0,037.1,030.5,18.5,0000.0,0022.00,0006.83,0004.90
2023-09-29 09:22:00,SystemResetWarning,0826.6,5.00,000.00,028.8,027.5,000.0,037.1,030.5,18.7,0000.0,0022.07,0006.78,0004.90
2023-09-29 09:23:00,SystemResetWarning,0826.6,5.00,000.00,028.8,027.6,000.0,037.1,030.5,18.3,0000.0,0022.09,0006.75,0004.90
2023-09-29 09:24:00,SystemResetWarning,0826.6,5.00,000.00,028.8,027.6,000.0,037.1,030.5,18.1,0000.0,0021.39,0006.76,0004.91
2023-09-29 09:25:00,SystemResetWarning,0826.6,5.01,000.00,028.8,027.6,000.0,037.2,030.5,18.0,0000.0,0021.14,0006.74,0004.92
2023-09-29 09:26:00,SystemResetWarning,0826.6,5.00,000.00,028.8,027.6,000.0,037.2,030.6,18.0,0000.0,0021.27,0006.71,0004.91
2023-09-29 09:27:00,SystemResetWarning,0826.4,4.98,000.00,028.9,027.3,000.0,037.2,030.6,18.1,0000.0,0021.81,0006.77,0004.92
2023-09-29 09:28:00,SystemResetWarning,0826.4,5.00,000.00,028.8,025.5,000.0,037.1,030.4,18.4,0000.0,0021.05,0006.75,0004.91
2023-09-29 09:29:00,SystemResetWarning,0826.4,5.01,000.00,028.7,024.5,000.0,037.1,030.2,18.7,0000.0,0020.70,0006.74,0004.91
2023-09-29 09:30:00,SystemResetWarning,0826.4,5.00,000.00,028.6,024.5,000.0,037.1,030.0,19.1,0000.0,0019.60,0006.69,0004.90
2023-09-29 09:31:00,SystemResetWarning,0826.4,5.01,000.00,028.5,024.8,000.0,037.0,029.9,19.3,0000.0,0018.88,0006.66,0004.89
2023-09-29 09:32:00,SystemResetWarning,0826.4,4.99,000.00,028.4,025.2,000.0,037.0,029.9,19.1,0000.0,0018.60,0006.69,0004.90
2023-09-29 09:33:00,SystemResetWarning,0826.4,5.00,000.00,028.4,025.5,000.0,037.0,029.9,18.9,0000.0,0018.80,0006.69,0004.90
2023-09-29 09:34:00,SystemResetWarning,0826.4,5.00,000.00,028.4,025.8,000.0,037.0,030.0,18.9,0000.0,0018.51,0006.74,0004.89
2023-09-29 09:35:00,SystemResetWarning,0826.4,5.01,000.00,028.4,026.1,000.0,037.0,030.0,19.1,0000.0,0018.31,0006.73,0004.88
2023-09-29 09:36:00,SystemResetWarning,0826.4,5.01,000.00,028.4,026.3,000.0,037.0,030.0,19.3,0000.0,0017.89,0006.73,0004.88
2023-09-29 09:37:00,SystemResetWarning,0826.4,5.00,000.00,028.4,026.5,000.0,037.0,030.1,19.6,0000.0,0018.06,0006.73,0004.90
2023-09-29 09:38:00,SystemResetWarning,0826.4,4.99,000.00,028.4,026.7,000.0,037.0,030.1,19.4,0000.0,0017.38,0006.65,0004.90
2023-09-29 09:39:00,SystemResetWarning,0826.4,5.00,000.00,028.4,026.8,000.0,036.9,030.1,19.4,0000.0,0016.22,0006.62,0004.89
2023-09-29 09:40:00,SystemResetWarning,0826.4,5.00,000.00,028.4,026.9,000.0,036.9,030.1,19.5,0000.0,0016.05,0006.65,0004.90
2023-09-29 09:41:00,SystemResetWarning,0826.4,5.00,000.00,028.4,027.0,000.0,036.9,030.2,19.3,0000.0,0016.30,0006.67,0004.90
2023-09-29 09:42:00,SystemResetWarning,0826.4,5.00,000.00,028.5,027.0,000.0,036.9,030.2,19.2,0000.0,0016.61,0006.69,0004.91
2023-09-29 09:43:00,SystemResetWarning,0826.4,5.00,000.00,028.5,027.1,000.0,037.0,030.2,19.1,0000.0,0016.64,0006.64,0004.90
2023-09-29 09:44:00,SystemResetWarning,0826.4,5.00,000.00,028.5,027.1,000.0,037.0,030.2,19.3,0000.0,0016.42,0006.66,0004.89
2023-09-29 09:45:00,SystemResetWarning,0826.4,5.00,000.00,028.5,027.2,000.0,037.0,030.2,19.5,0000.0,0016.35,0006.67,0004.89
2023-09-29 09:46:00,SystemResetWarning,0826.4,5.01,000.00,028.5,027.2,000.0,037.0,030.3,19.2,0000.0,0016.89,0006.62,0004.90
2023-09-29 09:47:00,SystemResetWarning,0826.4,5.00,000.00,028.5,027.2,000.0,037.0,030.3,19.4,0000.0,0017.94,0006.60,0004.89
2023-09-29 09:48:00,SystemResetWarning,0826.4,5.01,000.00,028.6,027.3,000.0,037.0,030.3,19.6,0000.0,0018.73,0006.58,0004.88
2023-09-29 09:49:00,SystemResetWarning,0826.4,5.00,000.00,028.6,027.3,000.0,037.0,030.3,19.6,0000.0,0019.46,0006.60,0004.87
2023-09-29 09:50:00,SystemResetWarning,0826.4,4.99,000.00,028.6,027.4,000.0,037.0,030.3,19.7,0000.0,0020.01,0006.66,0004.89
2023-09-29 09:51:00,SystemResetWarning,0826.4,5.00,000.00,028.6,027.4,000.0,037.0,030.3,19.8,0000.0,0020.29,0006.68,0004.90
2023-09-29 09:52:00,SystemResetWarning,0826.5,5.01,000.00,028.6,027.4,000.0,037.0,030.4,19.9,0000.0,0020.65,0006.66,0004.90
2023-09-29 09:53:00,SystemResetWarning,0826.5,5.00,000.00,028.7,027.4,000.0,037.0,030.4,20.1,0000.0,0020.04,0006.58,0004.89
2023-09-29 09:54:00,SystemResetWarning,0826.6,5.00,000.00,028.7,027.5,000.0,037.0,030.4,20.2,0000.0,0020.69,0006.60,0004.90
2023-09-29 09:55:00,SystemResetWarning,0826.6,5.00,000.00,028.7,027.5,000.0,037.1,030.4,20.3,0000.0,0022.07,0006.59,0004.89
2023-09-29 09:56:00,SystemResetWarning,0826.6,5.00,000.00,028.7,027.5,000.0,037.1,030.5,20.3,0000.0,0021.90,0006.57,0004.90
2023-09-29 09:57:00,SystemResetWarning,0826.6,5.00,000.00,028.7,027.5,000.0,037.1,030.5,20.3,0000.0,0022.11,0006.61,0004.90
2023-09-29 09:58:00,SystemResetWarning,0826.6,5.00,000.00,028.8,027.5,000.0,037.1,030.5,20.0,0000.0,0021.59,0006.60,0004.88
2023-09-29 09:59:00,SystemResetWarning,0826.6,5.00,000.00,028.8,027.6,000.0,037.1,030.5,19.5,0000.0,0021.08,0006.59,0004.89
